SCP
-0 -0 -0 -0 -0 0 0 0 -0 -0 0 0 0 0 0 0 0 0 0 0 0 0 0 0 0 0 0 0 0 0 0 -0
-0 -0 -0 -0 -0 -0 -0 -0 -0 0 -0 0 0 0 0 0 0 0 0 0 0 0 0 0 0 0 -0 -0 0 0 0 0
0 0 0 0 -0 -0 -0 0 0 0 0 0 0 0 0 0 0 0 0 0 0 0 0 0 0 0 0 -0 -0 -0 0 0
-0 0 0 0 -0 -0 -0 -0 -0 -0 0 -0 -0 -0 0 0 0 0 0 0 0 0 0 0 0 0 0 -0 -0 -0 -0 -0
-0 0 0 0 0 -0 0 0 -0 0 0 -0 -0 -0 0 0 0 0 0 0 0 -0 0 0 0 0 0 0 0 0 -0 -0
-0 0 0 0 0 0 0 0 -0 -0 0 -0 -0 -0 0 0 0 0 0 0 0 0 -0 -0 0 0 0 0 0 0 0 0
-0 -0 0 0 0 0 -0 -0 -0 -0 -0 0 0 0 0 0 0 0 0 0 0 0 -0 -0 0 0 0 0 0 0 0 0
-0 -0 -0 0 0 0 0 -0 -0 -0 0 0 0 0 0 0 0 0 0 0 0 0 0 -0 -0 0 0 0 0 0 -0 -0
-0 -0 -0 -0 0 -0 -0 -0 -0 0 0 0 0 0 0 0 0 0 0 0 0 0 0 0 0 0 0 0 0 0 0 0
-0 -0 -0 -0 -0 -0 -0 -0 -0 0 0 0 0 0 0 0 0 0 0 -0 -0 0 0 0 0 0 0 0 0 0 0 0
-0 -0 -0 -0 -0 -0 -0 -0 -0 0 0 0 0 0 0 0 0 0 -0 -0 0 0 0 0 0 0 0 0 0 0 0 0
-0 -0 -0 -0 -0 -0 -0 -0 -0 -0 0 1 0 0 0 0 0 0 0 0 0 0 0 0 0 0 0 0 0 0 0 0
-0 -0 -0 -0 0 0 -0 0 0 0 0 0 0 0 0 0 0 0 0 0 0 0 0 0 0 0 0 0 0 0 0 0
-0 -0 -0 0 -0 0 0 0 0 0 0 0 1 1 0 0 0 1 1 0 0 0 0 0 0 1 0 1 0 1 1 1
0 0 0 0 0 0 0 0 0 0 1 1 1 1 1 1 1 1 1 1 1 0 0 1 1 1 1 1 1 1 1 1
0 0 0 0 0 0 0 1 1 1 1 1 2 2 1 1 1 1 1 1 1 1 1 1 1 1 1 1 1 1 1 1
0 0 0 0 0 1 1 2 2 2 2 2 0 1 1 1 2 2 2 1 2 1 1 1 1 1 1 1 1 0 0 0
0 0 0 0 1 2 3 2 2 0 0 0 0 1 1 1 2 1 1 1 1 1 1 1 1 0 0 0 0 0 0 0
0 0 2 3 5 4 2 3 1 0 1 -0 0 -0 1 1 2 1 1 1 1 1 1 0 0 0 0 0 0 0 0 0
0 1 1 2 1 1 1 0 0 0 0 0 1 0 1 2 1 1 1 1 1 1 0 0 0 0 0 0 0 0 0 0
Wind_Speed_500mb
40 38 35 35 34 35 34 34 35 31 26 26 22 21 19 17 17 16 16 11 7 8 3 5 8 19 12 17 16 10 9 8
39 38 36 36 37 36 36 34 35 34 26 26 23 22 21 18 15 16 13 7 5 6 6 2 2 6 6 11 10 11 10 10
34 32 34 34 36 37 37 36 38 38 34 27 25 22 22 18 18 18 15 9 6 4 2 5 4 4 4 8 9 7 4 3
36 35 34 36 35 36 37 39 40 40 37 29 26 26 23 22 20 18 18 9 4 1 2 1 2 2 4 3 3 4 2 4
40 38 37 36 34 34 40 41 40 40 37 32 28 24 23 22 19 20 17 14 5 5 5 1 6 4 6 4 1 3 1 3
42 40 38 36 35 36 36 37 36 36 36 34 28 25 25 21 18 17 16 17 10 9 4 5 6 4 4 7 6 6 5 7
47 45 43 41 40 38 39 39 38 38 37 36 35 33 31 24 22 20 20 16 15 16 11 10 10 8 9 10 11 9 10 7
52 50 48 45 43 43 40 43 43 43 41 40 34 35 35 32 27 24 23 17 19 18 16 15 11 11 10 11 12 11 9 10
52 52 51 49 47 47 52 50 49 48 49 44 39 35 31 30 29 29 26 22 19 24 17 22 15 16 14 15 12 13 9 10
55 53 52 53 51 53 55 58 56 54 51 44 34 30 28 25 26 27 27 29 25 23 25 24 24 18 16 13 14 11 10 12
58 60 59 52 52 53 52 55 57 57 54 47 45 36 30 25 27 27 28 32 27 27 26 22 26 19 15 9 8 10 11 14
60 61 63 62 57 55 51 57 56 59 57 51 46 34 30 25 26 24 26 34 33 29 29 26 25 21 22 14 11 10 13 16
71 70 67 66 60 57 65 61 59 61 60 57 48 42 28 25 23 24 32 33 34 32 31 34 30 25 25 18 21 19 16 19
76 73 66 61 59 56 60 62 59 56 56 56 53 33 27 25 23 25 29 31 35 36 33 36 36 33 24 20 28 27 18 22
70 77 78 72 66 58 54 65 57 50 47 46 48 41 32 33 30 29 32 32 34 28 35 35 34 35 26 32 30 22 20 15
56 71 79 73 63 60 58 49 44 43 43 41 42 44 37 35 30 27 28 31 31 36 32 33 34 29 25 24 18 12 6 10
40 49 57 67 63 60 50 41 46 47 34 21 26 37 39 40 35 34 30 29 27 26 30 33 31 25 21 11 8 6 11 16
18 30 38 46 54 48 41 45 49 40 11 7 24 34 43 37 34 31 32 31 29 24 23 22 17 14 10 5 6 14 11 13
6 15 18 27 29 30 37 49 52 41 27 21 45 34 43 36 33 31 24 22 17 16 14 13 9 6 8 16 16 9 9 10
16 19 22 27 27 35 36 53 52 34 37 32 51 49 42 31 26 22 22 17 19 22 20 15 6 4 14 10 6 5 7 8
Wind_Direction_500mb
177 179 180 181 184 182 181 186 181 182 180 179 184 187 189 187 180 163 167 151 138 92 22 32 20 35 40 38 37 81 118 107
180 182 183 183 187 189 185 192 188 182 187 186 191 189 191 185 194 178 184 157 168 153 96 80 50 25 48 38 39 102 114 112
178 182 187 186 191 191 192 191 190 195 190 195 191 192 197 191 191 189 191 187 199 148 142 115 105 57 37 29 58 81 102 91
181 183 187 189 191 194 193 194 197 197 197 197 198 195 198 191 196 199 191 193 235 108 269 157 145 99 129 114 65 37 352 231
192 190 191 193 195 195 194 194 201 200 200 201 201 202 201 200 202 201 197 189 226 249 193 180 266 211 208 213 262 295 339 271
201 200 200 200 196 199 197 198 204 204 205 205 207 207 204 211 213 221 223 225 232 252 241 216 224 235 257 255 265 256 246 251
208 207 208 207 206 205 204 204 204 209 212 212 213 216 212 215 219 223 234 239 247 226 222 220 237 256 240 235 249 248 260 240
211 210 211 214 214 213 212 216 213 216 217 218 219 225 224 226 228 231 233 237 234 230 228 228 232 240 253 254 242 256 238 250
212 212 213 215 217 218 222 223 225 224 221 220 220 225 228 231 233 234 232 233 233 233 230 249 245 232 234 252 252 254 262 249
208 210 213 215 218 224 227 229 229 231 229 224 220 232 236 235 235 232 232 230 228 229 229 242 244 235 254 242 239 226 242 253
212 215 213 213 218 226 233 232 232 233 229 228 232 233 232 230 227 234 240 232 227 229 233 229 246 224 240 268 261 233 233 247
211 211 214 214 216 226 231 230 232 236 234 227 232 230 236 239 233 232 232 237 235 230 239 231 239 238 238 248 240 243 254 243
214 211 212 214 213 216 225 233 236 234 233 228 232 231 239 244 239 236 246 243 245 243 237 244 244 245 247 255 272 274 264 254
219 217 215 213 212 212 222 229 232 232 228 229 229 222 222 237 250 248 244 259 252 249 241 245 247 248 256 270 278 267 260 262
221 219 218 217 213 211 211 226 227 228 226 229 231 234 248 256 251 255 258 259 254 252 244 243 246 244 251 278 264 249 259 259
232 227 224 221 216 214 213 213 210 215 215 224 231 237 248 260 256 245 248 254 247 243 240 245 243 251 271 255 246 240 240 295
245 234 231 227 221 220 211 191 195 199 193 189 261 251 254 255 241 248 247 241 239 231 233 243 250 254 239 219 208 265 295 292
243 226 229 223 221 208 189 176 168 163 146 35 228 276 264 251 246 255 250 242 230 236 234 234 219 215 220 254 305 302 304 297
104 162 168 171 174 172 169 169 173 161 149 339 197 227 251 241 239 241 234 226 209 216 211 191 173 201 293 310 313 311 312 311
128 141 146 157 174 171 167 181 181 219 275 194 176 212 224 215 217 226 221 201 174 160 155 166 169 279 322 321 318 327 330 322
Wind_Speed_850mb
40 38 35 35 34 35 34 34 35 31 26 26 22 21 19 17 17 16 16 11 7 8 3 5 8 19 12 17 16 10 9 8
39 38 36 36 37 36 36 34 35 34 26 26 23 22 21 18 15 16 13 7 5 6 6 2 2 6 6 11 10 11 10 10
34 32 34 34 36 37 37 36 38 38 34 27 25 22 22 18 18 18 15 9 6 4 2 5 4 4 4 8 9 7 4 3
36 35 34 36 35 36 37 39 40 40 37 29 26 26 23 22 20 18 18 9 4 1 2 1 2 2 4 3 3 4 2 4
40 38 37 36 34 34 40 41 40 40 37 32 28 24 23 22 19 20 17 14 5 5 5 1 6 4 6 4 1 3 1 3
42 40 38 36 35 36 36 37 36 36 36 34 28 25 25 21 18 17 16 17 10 9 4 5 6 4 4 7 6 6 5 7
47 45 43 41 40 38 39 39 38 38 37 36 35 33 31 24 22 20 20 16 15 16 11 10 10 8 9 10 11 9 10 7
52 50 48 45 43 43 40 43 43 43 41 40 34 35 35 32 27 24 23 17 19 18 16 15 11 11 10 11 12 11 9 10
52 52 51 49 47 47 52 50 49 48 49 44 39 35 31 30 29 29 26 22 19 24 17 22 15 16 14 15 12 13 9 10
55 53 52 53 51 53 55 58 56 54 51 44 34 30 28 25 26 27 27 29 25 23 25 24 24 18 16 13 14 11 10 12
58 60 59 52 52 53 52 55 57 57 54 47 45 36 30 25 27 27 28 32 27 27 26 22 26 19 15 9 8 10 11 14
60 61 63 62 57 55 51 57 56 59 57 51 46 34 30 25 26 24 26 34 33 29 29 26 25 21 22 14 11 10 13 16
71 70 67 66 60 57 65 61 59 61 60 57 48 42 28 25 23 24 32 33 34 32 31 34 30 25 25 18 21 19 16 19
76 73 66 61 59 56 60 62 59 56 56 56 53 33 27 25 23 25 29 31 35 36 33 36 36 33 24 20 28 27 18 22
70 77 78 72 66 58 54 65 57 50 47 46 48 41 32 33 30 29 32 32 34 28 35 35 34 35 26 32 30 22 20 15
56 71 79 73 63 60 58 49 44 43 43 41 42 44 37 35 30 27 28 31 31 36 32 33 34 29 25 24 18 12 6 10
40 49 57 67 63 60 50 41 46 47 34 21 26 37 39 40 35 34 30 29 27 26 30 33 31 25 21 11 8 6 11 16
18 30 38 46 54 48 41 45 49 40 11 7 24 34 43 37 34 31 32 31 29 24 23 22 17 14 10 5 6 14 11 13
6 15 18 27 29 30 37 49 52 41 27 21 45 34 43 36 33 31 24 22 17 16 14 13 9 6 8 16 16 9 9 10
16 19 22 27 27 35 36 53 52 34 37 32 51 49 42 31 26 22 22 17 19 22 20 15 6 4 14 10 6 5 7 8
Wind_Direction_850mb
177 179 180 181 184 182 181 186 181 182 180 179 184 187 189 187 180 163 167 151 138 92 22 32 20 35 40 38 37 81 118 107
180 182 183 183 187 189 185 192 188 182 187 186 191 189 191 185 194 178 184 157 168 153 96 80 50 25 48 38 39 102 114 112
178 182 187 186 191 191 192 191 190 195 190 195 191 192 197 191 191 189 191 187 199 148 142 115 105 57 37 29 58 81 102 91
181 183 187 189 191 194 193 194 197 197 197 197 198 195 198 191 196 199 191 193 235 108 269 157 145 99 129 114 65 37 352 231
192 190 191 193 195 195 194 194 201 200 200 201 201 202 201 200 202 201 197 189 226 249 193 180 266 211 208 213 262 295 339 271
201 200 200 200 196 199 197 198 204 204 205 205 207 207 204 211 213 221 223 225 232 252 241 216 224 235 257 255 265 256 246 251
208 207 208 207 206 205 204 204 204 209 212 212 213 216 212 215 219 223 234 239 247 226 222 220 237 256 240 235 249 248 260 240
211 210 211 214 214 213 212 216 213 216 217 218 219 225 224 226 228 231 233 237 234 230 228 228 232 240 253 254 242 256 238 250
212 212 213 215 217 218 222 223 225 224 221 220 220 225 228 231 233 234 232 233 233 233 230 249 245 232 234 252 252 254 262 249
208 210 213 215 218 224 227 229 229 231 229 224 220 232 236 235 235 232 232 230 228 229 229 242 244 235 254 242 239 226 242 253
212 215 213 213 218 226 233 232 232 233 229 228 232 233 232 230 227 234 240 232 227 229 233 229 246 224 240 268 261 233 233 247
211 211 214 214 216 226 231 230 232 236 234 227 232 230 236 239 233 232 232 237 235 230 239 231 239 238 238 248 240 243 254 243
214 211 212 214 213 216 225 233 236 234 233 228 232 231 239 244 239 236 246 243 245 243 237 244 244 245 247 255 272 274 264 254
219 217 215 213 212 212 222 229 232 232 228 229 229 222 222 237 250 248 244 259 252 249 241 245 247 248 256 270 278 267 260 262
221 219 218 217 213 211 211 226 227 228 226 229 231 234 248 256 251 255 258 259 254 252 244 243 246 244 251 278 264 249 259 259
232 227 224 221 216 214 213 213 210 215 215 224 231 237 248 260 256 245 248 254 247 243 240 245 243 251 271 255 246 240 240 295
245 234 231 227 221 220 211 191 195 199 193 189 261 251 254 255 241 248 247 241 239 231 233 243 250 254 239 219 208 265 295 292
243 226 229 223 221 208 189 176 168 163 146 35 228 276 264 251 246 255 250 242 230 236 234 234 219 215 220 254 305 302 304 297
104 162 168 171 174 172 169 169 173 161 149 339 197 227 251 241 239 241 234 226 209 216 211 191 173 201 293 310 313 311 312 311
128 141 146 157 174 171 167 181 181 219 275 194 176 212 224 215 217 226 221 201 174 160 155 166 169 279 322 321 318 327 330 322